User: anonymous   Login
Location: Carthage
(33.8834°N, 106.6595°W)
Time: 20:14:03
(UTC+00:00)
Language:

Cosmos 2322 Rocket - Orbit

View from above orbital plane
View from above orbital plane
View from above satellite
View from above satellite

Ground track
Ground track

The orbit is defined by the following mean orbital elements,

1 23705U          26105.38000727 +.00000000 +00000-0 +16690-3 0 00006
2 23705  71.0192 103.2242 0010616  58.3866 301.8292 14.15502911    07
Epoch (UTC): 15 April 2026 09:07:12
Eccentricity: 0.0010616
inclination: 71.0192°
perigee height: 833 km
apogee height: 848 km
right ascension of ascending node: 103.2242°
argument of perigee: 58.3866°
revolutions per day: 14.15502911
mean anomaly at epoch: 301.8292°

The dashed part of the orbit path shows where the satellite is in the earth's shadow,  

DLR